Location: ?????
(30.2541°N, 31.0910°E)
Time: 12:35:27
(UTC+00:00)

Cosmos 1633 Rocket - Visible Passes

Search period start: 02 April 2023 00:00
Search period end: 12 April 2023 00:00
Orbit: 607 x 621 km, 82.5° (Epoch: 01 April)

Date Brightness Start Highest point End Pass type
(mag) Time Alt. Az. Time Alt. Az. Time Alt. Az.
02 Apr 6.2 01:18:28 10° NE 01:20:17 12° ENE 01:22:06 10° E visible
02 Apr 3.5 02:54:05 10° NNW 02:58:09 38° W 03:02:11 10° SSW visible
03 Apr 5.4 01:32:39 10° NNE 01:36:11 23° ENE 01:39:41 10° SE visible
03 Apr 4.3 03:10:32 10° NW 03:13:44 20° W 03:16:53 10° SW visible
04 Apr 4.1 01:47:46 10° N 01:51:59 45° E 01:56:09 10° SSE visible
05 Apr 2.9 02:03:19 10° N 02:07:42 89° W 02:12:04 10° S visible
06 Apr 6.2 00:44:21 10° ENE 00:45:25 11° ENE 00:46:30 10° E visible
06 Apr 3.3 02:19:12 10° NNW 02:23:21 43° W 02:26:53 13° SSW visible
07 Apr 5.4 00:58:01 10° NNE 01:01:19 21° ENE 01:03:11 16° ESE visible
07 Apr 4.2 02:35:32 10° NW 02:38:55 22° W 02:40:06 20° WSW visible
08 Apr 4.2 01:13:01 10° N 01:17:08 39° E 01:17:16 39° E visible
08 Apr 4.9 02:52:58 10° WNW 02:54:13 11° W 02:54:13 11° W visible
09 Apr 3.6 01:28:28 10° N 01:31:46 50° N 01:31:46 50° N visible
10 Apr 4.3 01:44:18 10° NNW 01:46:31 28° NNW 01:46:31 28° NNW visible
11 Apr 6.0 00:23:22 10° NNE 00:24:26 14° NE 00:24:26 14° NE visible
11 Apr 5.1 02:00:31 10° NW 02:01:25 15° NW 02:01:25 15° NW visible
